Date String (YYYY-MM-DD hh:mm:ss) UTC,Instrument flags,Ambient pressure (hPa),Sample flow (lpm),Bypass flow (lpm),Sample temperature (°C),Ambient temperature (°C),ASC tube jacket temperature (°C),LED temperature (°C),Box temperature (°C),Sample RH (%),Span deviation,Mass concentration (μg/m³),Mass concentration (μg/m³),Mass concentration (μg/m³)
DateTimeUTC,F1_M11,P_M11,Q1_M11,Q2_M11,T1_M11,T2_M11,T3_M11,T4_M11,T5_M11,U1_M11,ZSPAN_M11,X0_M11,X2_M11,X1_M11
2023-02-10 18:00:00,,0832.1,5.00,0.00,22.3,20.8,00.0,31.1,24.0,05.6,0000.0,0008.98,0002.32,0001.44
2023-02-10 18:01:00,,0832.0,5.00,0.00,22.3,20.8,00.0,31.1,24.0,05.7,0000.0,0009.13,0002.43,0001.47
2023-02-10 18:02:00,,0832.1,4.99,0.00,22.3,20.7,00.0,31.1,24.0,06.1,0000.0,0008.75,0002.50,0001.50
2023-02-10 18:03:00,,0832.1,4.96,0.00,22.3,20.7,00.0,31.1,24.0,06.0,0000.0,0008.83,0002.61,0001.54
2023-02-10 18:04:00,,0832.0,4.97,0.00,22.3,20.7,00.0,31.1,24.0,06.1,0000.0,0008.53,0002.68,0001.57
2023-02-10 18:05:00,,0831.9,4.98,0.00,22.3,20.7,00.0,31.1,24.0,06.0,0000.0,0008.09,0002.69,0001.59
2023-02-10 18:06:00,,0831.9,4.99,0.00,22.2,20.6,00.0,31.1,23.9,05.9,0000.0,0007.80,0002.73,0001.60
2023-02-10 18:07:00,,0832.0,4.99,0.00,22.2,20.6,00.0,31.1,23.9,06.0,0000.0,0006.81,0002.73,0001.62
2023-02-10 18:08:00,,0832.0,5.00,0.00,22.2,20.5,00.0,31.1,23.9,05.8,0000.0,0007.22,0002.71,0001.64
2023-02-10 18:09:00,,0831.9,5.01,0.00,22.2,20.5,00.0,31.1,23.9,05.9,0000.0,0007.24,0002.77,0001.65
2023-02-10 18:10:00,,0831.9,5.01,0.00,22.2,20.4,00.0,31.1,23.9,06.0,0000.0,0007.36,0002.82,0001.67
2023-02-10 18:11:00,,0832.0,5.03,0.00,22.1,20.4,00.0,31.1,23.8,06.0,0000.0,0007.41,0002.85,0001.67
2023-02-10 18:12:00,,0831.9,5.01,0.00,22.1,20.4,00.0,31.0,23.8,05.9,0000.0,0007.09,0002.72,0001.66
2023-02-10 18:13:00,,0831.9,5.02,0.00,22.1,20.3,00.0,31.0,23.8,05.9,0000.0,0007.02,0002.71,0001.65
2023-02-10 18:14:00,,0831.8,4.98,0.00,22.1,20.2,00.0,31.0,23.7,05.8,0000.0,0006.96,0002.66,0001.64
2023-02-10 18:15:00,,0831.8,5.00,0.00,22.0,20.3,00.0,31.0,23.7,05.9,0000.0,0007.08,0002.64,0001.62
2023-02-10 18:16:00,,0831.7,5.06,0.00,22.1,21.5,00.0,31.0,24.0,05.9,0000.0,0007.07,0002.66,0001.61
2023-02-10 18:17:00,,0831.7,5.01,0.00,22.2,22.8,00.0,31.0,24.3,05.9,0000.0,0007.18,0002.64,0001.60
2023-02-10 18:18:00,,0831.7,5.02,0.00,22.4,22.8,00.0,31.0,24.4,06.0,0000.0,0006.62,0002.63,0001.61
2023-02-10 18:19:00,,0831.7,5.01,0.00,22.4,22.3,00.0,31.1,24.3,06.0,0000.0,0006.77,0002.63,0001.61
2023-02-10 18:20:00,,0831.7,5.05,0.00,22.4,21.9,00.0,31.1,24.2,06.0,0000.0,0007.51,0002.60,0001.62
2023-02-10 18:21:00,,0831.7,5.03,0.00,22.4,21.5,00.0,31.1,24.1,06.3,0000.0,0008.52,0002.69,0001.63
2023-02-10 18:22:00,,0831.7,5.05,0.00,22.4,21.2,00.0,31.1,24.1,06.3,0000.0,0008.75,0002.68,0001.63
2023-02-10 18:23:00,,0831.7,5.04,0.00,22.3,21.0,00.0,31.1,24.0,06.3,0000.0,0008.88,0002.73,0001.66
2023-02-10 18:24:00,,0831.7,5.03,0.00,22.3,20.8,00.0,31.1,24.0,06.4,0000.0,0008.89,0002.76,0001.67
2023-02-10 18:25:00,,0831.7,5.00,0.00,22.3,20.7,00.0,31.1,23.9,06.3,0000.0,0009.00,0002.78,0001.68
2023-02-10 18:26:00,,0831.7,5.00,0.00,22.2,20.6,00.0,31.1,23.9,06.2,0000.0,0008.97,0002.82,0001.70
2023-02-10 18:27:00,,0831.7,5.01,0.00,22.2,20.5,00.0,31.1,23.8,06.2,0000.0,0008.92,0002.82,0001.71
2023-02-10 18:28:00,,0831.7,4.98,0.00,22.2,20.4,00.0,31.1,23.8,06.3,0000.0,0009.23,0002.84,0001.75
2023-02-10 18:29:00,,0831.6,5.00,0.00,22.1,20.3,00.0,31.1,23.7,06.3,0000.0,0009.64,0002.89,0001.76
2023-02-10 18:30:00,,0831.6,5.03,0.00,22.1,20.2,00.0,31.1,23.7,06.4,0000.0,0009.30,0002.92,0001.77
2023-02-10 18:31:00,,0831.6,4.99,0.00,22.1,20.2,00.0,31.1,23.6,06.5,0000.0,0009.68,0002.89,0001.79
2023-02-10 18:32:00,,0831.6,5.03,0.00,22.0,20.2,00.0,31.0,23.6,06.6,0000.0,0008.82,0002.79,0001.79
2023-02-10 18:33:00,,0831.6,4.98,0.00,22.0,20.1,00.0,31.0,23.5,06.5,0000.0,0008.57,0002.78,0001.79
2023-02-10 18:34:00,,0831.6,4.98,0.00,22.0,20.1,00.0,31.0,23.5,06.7,0000.0,0008.42,0002.76,0001.79
2023-02-10 18:35:00,,0831.6,4.97,0.00,21.9,20.1,00.0,31.0,23.5,07.0,0000.0,0008.41,0002.73,0001.79
2023-02-10 18:36:00,,0831.6,4.99,0.00,21.9,20.1,00.0,31.0,23.5,08.0,0000.0,0009.20,0002.78,0001.82
2023-02-10 18:37:00,,0831.5,5.00,0.00,21.9,20.1,00.0,30.9,23.5,08.0,0000.0,0009.36,0002.79,0001.87
2023-02-10 18:38:00,,0831.5,5.01,0.00,21.9,20.3,00.0,30.9,23.6,08.0,0000.0,0009.45,0002.79,0001.93
2023-02-10 18:39:00,,0831.5,5.05,0.00,22.0,21.5,00.0,30.9,23.9,08.1,0000.0,0009.19,0002.82,0001.99
2023-02-10 18:40:00,,0831.5,5.02,0.00,22.1,22.8,00.0,30.9,24.2,07.6,0000.0,0008.51,0002.82,0002.04
2023-02-10 18:41:00,,0831.5,5.00,0.00,22.2,22.7,00.0,31.0,24.3,07.8,0000.0,0008.45,0002.84,0002.08
2023-02-10 18:42:00,,0831.4,5.00,0.00,22.3,22.3,00.0,31.0,24.3,08.0,0000.0,0007.76,0002.91,0002.12
2023-02-10 18:43:00,,0831.4,4.99,0.00,22.3,21.9,00.0,31.0,24.2,08.1,0000.0,0007.73,0002.99,0002.18
2023-02-10 18:44:00,,0831.3,4.99,0.00,22.3,21.6,00.0,31.1,24.1,07.8,0000.0,0007.56,0003.02,0002.24
2023-02-10 18:45:00,,0831.3,5.00,0.00,22.3,21.4,00.0,31.1,24.1,07.7,0000.0,0008.56,0003.03,0002.29
2023-02-10 18:46:00,,0831.2,5.00,0.00,22.3,21.3,00.0,31.1,24.1,07.9,0000.0,0009.07,0003.10,0002.34
2023-02-10 18:47:00,,0831.2,4.99,0.00,22.3,21.2,00.0,31.1,24.2,07.9,0000.0,0008.30,0003.10,0002.37
2023-02-10 18:48:00,,0831.2,5.01,0.00,22.4,21.1,00.0,31.1,24.2,07.6,0000.0,0007.86,0003.03,0002.35
2023-02-10 18:49:00,,0831.2,4.99,0.00,22.4,21.1,00.0,31.1,24.2,07.7,0000.0,0007.85,0003.05,0002.31
2023-02-10 18:50:00,,0831.2,4.98,0.00,22.4,21.0,00.0,31.1,24.2,07.8,0000.0,0008.74,0003.08,0002.27
2023-02-10 18:51:00,,0831.2,5.00,0.00,22.4,21.0,00.0,31.1,24.1,07.6,0000.0,0008.69,0003.06,0002.26
2023-02-10 18:52:00,,0831.2,4.99,0.00,22.3,20.9,00.0,31.2,24.1,07.8,0000.0,0008.61,0003.04,0002.23
2023-02-10 18:53:00,,0831.2,5.00,0.00,22.3,20.8,00.0,31.2,24.1,07.5,0000.0,0008.52,0003.01,0002.22
2023-02-10 18:54:00,,0831.2,5.01,0.00,22.3,20.8,00.0,31.2,24.1,07.3,0000.0,0008.38,0002.96,0002.18
2023-02-10 18:55:00,,0831.2,5.00,0.00,22.3,20.7,00.0,31.2,24.0,07.1,0000.0,0008.66,0002.95,0002.16
2023-02-10 18:56:00,,0831.2,5.02,0.00,22.3,20.6,00.0,31.1,24.0,07.5,0000.0,0008.09,0002.96,0002.15
2023-02-10 18:57:00,,0831.1,4.99,0.00,22.3,20.6,00.0,31.1,24.0,07.7,0000.0,0007.68,0002.91,0002.14
2023-02-10 18:58:00,,0831.1,5.02,0.00,22.3,20.6,00.0,31.1,24.0,07.6,0000.0,0007.71,0002.89,0002.13
2023-02-10 18:59:00,,0831.1,4.97,0.00,22.2,20.6,00.0,31.1,24.0,07.2,0000.0,0008.03,0002.94,0002.12
